SXN55A EBLG-ENTO

Flight info

Callsign SXN55A
Flight time 1h 43m
Altitude 27000
Route BUB M624 NIK L191 VICOT DCT GREFI DCT RAMUD DCT PIPEX M609 ULMUG
Aircraft E55P/M-SBDFGHJ2RWY/LB2

Departure

Time 2026-04-25 21:07
Airport Liège Airport (EBLG)

Arrival

Time 2026-04-25 22:50
Airport Sandefjord Airport, Torp (ENTO)
Time Latitude Longitude Altitude Speed Heading
2026-04-25 20:47 50.64402 5.45999 624 ft 0 kts 135°
2026-04-25 20:56 50.64404 5.45997 623 ft 1 kts 134°
2026-04-25 20:57 50.64410 5.45987 623 ft 2 kts 134°
2026-04-25 20:57 50.64420 5.45971 622 ft 3 kts 134°
2026-04-25 20:57 50.64436 5.45952 621 ft 3 kts 165°
2026-04-25 20:57 50.64452 5.45948 621 ft 1 kts 176°
2026-04-25 20:58 50.64455 5.45949 621 ft 0 kts 206°
2026-04-25 20:58 50.64455 5.45948 621 ft 0 kts 206°
2026-04-25 20:59 50.64454 5.45947 621 ft 0 kts 206°
2026-04-25 20:59 50.64453 5.45947 621 ft 0 kts 205°
2026-04-25 20:59 50.64452 5.45946 621 ft 0 kts 205°
2026-04-25 20:59 50.64451 5.45945 621 ft 0 kts 205°
2026-04-25 21:01 50.64448 5.45938 620 ft 3 kts 240°
2026-04-25 21:01 50.64428 5.45882 619 ft 8 kts 240°
2026-04-25 21:01 50.64389 5.45806 619 ft 10 kts 224°
2026-04-25 21:02 50.64323 5.45704 617 ft 14 kts 224°
2026-04-25 21:02 50.64236 5.45568 617 ft 17 kts 225°
2026-04-25 21:02 50.64144 5.45421 616 ft 20 kts 225°
2026-04-25 21:02 50.64037 5.45243 618 ft 21 kts 226°
2026-04-25 21:03 50.63925 5.45066 621 ft 21 kts 224°
2026-04-25 21:03 50.63818 5.44895 622 ft 22 kts 224°
2026-04-25 21:03 50.63696 5.44705 623 ft 23 kts 225°
2026-04-25 21:03 50.63571 5.44501 625 ft 24 kts 226°
2026-04-25 21:04 50.63452 5.44305 627 ft 24 kts 226°
2026-04-25 21:04 50.63330 5.44101 631 ft 24 kts 227°
2026-04-25 21:04 50.63212 5.43931 637 ft 11 kts 225°
2026-04-25 21:04 50.63194 5.43873 638 ft 0 kts 283°
2026-04-25 21:05 50.63198 5.43856 639 ft 4 kts 296°
2026-04-25 21:05 50.63247 5.43826 638 ft 11 kts
2026-04-25 21:05 50.63331 5.43854 636 ft 13 kts 14°
2026-04-25 21:05 50.63421 5.43908 633 ft 16 kts 39°
2026-04-25 21:06 50.63643 5.44250 623 ft 81 kts 42°
2026-04-25 21:06 50.64197 5.45102 631 ft 136 kts 44°
2026-04-25 21:06 50.64929 5.46265 955 ft 164 kts 45°
2026-04-25 21:06 50.65484 5.47176 1212 ft 183 kts 44°
2026-04-25 21:07 50.66775 5.49222 1899 ft 213 kts 44°
2026-04-25 21:07 50.67847 5.50930 2652 ft 225 kts 43°
2026-04-25 21:07 50.68919 5.52640 3709 ft 222 kts 43°
2026-04-25 21:07 50.70064 5.54187 4675 ft 223 kts 42°
2026-04-25 21:08 50.71094 5.56026 5559 ft 228 kts 39°
2026-04-25 21:08 50.72497 5.56961 6345 ft 224 kts 358°
2026-04-25 21:08 50.73913 5.56132 7058 ft 227 kts 319°
2026-04-25 21:08 50.74921 5.54199 7799 ft 233 kts 302°
2026-04-25 21:09 50.76019 5.49335 9247 ft 242 kts 288°
2026-04-25 21:09 50.76435 5.46778 9967 ft 245 kts 287°
2026-04-25 21:09 50.76837 5.44200 10659 ft 247 kts 286°
2026-04-25 21:10 50.77240 5.41571 11373 ft 250 kts 286°
2026-04-25 21:10 50.77644 5.38916 12065 ft 252 kts 285°
2026-04-25 21:10 50.78052 5.36236 12709 ft 255 kts 285°
2026-04-25 21:10 50.78465 5.33506 13430 ft 257 kts 285°
2026-04-25 21:11 50.78879 5.30773 14099 ft 260 kts 285°
2026-04-25 21:11 50.79297 5.28007 14787 ft 263 kts 285°
2026-04-25 21:11 50.79718 5.25211 15449 ft 266 kts 285°
2026-04-25 21:11 50.80142 5.22389 16094 ft 268 kts 285°
2026-04-25 21:12 50.80571 5.19543 16727 ft 270 kts 285°
2026-04-25 21:12 50.81001 5.16669 17381 ft 273 kts 285°
2026-04-25 21:12 50.81440 5.13736 17983 ft 276 kts 285°
2026-04-25 21:12 50.81733 5.11778 18201 ft 285 kts 285°
2026-04-25 21:13 50.82352 5.07633 18274 ft 301 kts 284°
2026-04-25 21:13 50.82835 5.04391 18735 ft 304 kts 284°
2026-04-25 21:13 50.83292 5.01309 19905 ft 283 kts 284°
2026-04-25 21:13 50.83730 4.98360 20664 ft 277 kts 284°
2026-04-25 21:14 50.84173 4.95369 21055 ft 285 kts 284°
2026-04-25 21:14 50.84629 4.92283 21482 ft 291 kts 284°
2026-04-25 21:14 50.85085 4.89181 21990 ft 292 kts 284°
2026-04-25 21:14 50.85543 4.86075 22549 ft 292 kts 283°
2026-04-25 21:15 50.85997 4.82973 23083 ft 292 kts 283°
2026-04-25 21:15 50.86454 4.79854 23581 ft 294 kts 283°
2026-04-25 21:15 50.86913 4.76716 24041 ft 297 kts 283°
2026-04-25 21:15 50.87380 4.73515 24232 ft 309 kts 283°
2026-04-25 21:16 50.87877 4.70113 24268 ft 325 kts 283°
2026-04-25 21:16 50.88392 4.66567 24291 ft 340 kts 283°
2026-04-25 21:16 50.88923 4.62903 24680 ft 344 kts 283°
2026-04-25 21:16 50.89450 4.59259 25314 ft 340 kts 283°
2026-04-25 21:17 50.89986 4.55665 25916 ft 337 kts 287°
2026-04-25 21:17 50.91142 4.52482 26338 ft 341 kts 314°
2026-04-25 21:17 50.92970 4.50110 26830 ft 341 kts 320°
2026-04-25 21:17 50.94780 4.47700 27219 ft 345 kts 319°
2026-04-25 21:18 50.96638 4.45217 27266 ft 358 kts 319°
2026-04-25 21:18 50.98563 4.42636 27273 ft 370 kts 319°
2026-04-25 21:18 51.00551 4.39964 27272 ft 382 kts 319°
2026-04-25 21:18 51.02582 4.37228 27270 ft 393 kts 319°
2026-04-25 21:19 51.04690 4.34387 27267 ft 403 kts 318°
2026-04-25 21:19 51.06839 4.31484 27268 ft 413 kts 318°
2026-04-25 21:19 51.09059 4.28485 27266 ft 420 kts 318°
2026-04-25 21:19 51.11267 4.25495 27258 ft 418 kts 318°
2026-04-25 21:20 51.13467 4.22515 27257 ft 416 kts 318°
2026-04-25 21:20 51.14921 4.20541 27256 ft 415 kts 318°
2026-04-25 21:20 51.17754 4.16470 27260 ft 411 kts 315°
2026-04-25 21:20 51.20056 4.13897 27293 ft 410 kts 328°
2026-04-25 21:21 51.22387 4.11357 27271 ft 408 kts 323°
2026-04-25 21:21 51.24698 4.08723 27261 ft 407 kts 323°
2026-04-25 21:21 51.27048 4.06283 27230 ft 408 kts 335°
2026-04-25 21:21 51.29758 4.05323 27265 ft 409 kts 357°
2026-04-25 21:22 51.32590 4.05355 27261 ft 408 kts 357°
2026-04-25 21:22 51.35408 4.05301 27260 ft 408 kts 358°
2026-04-25 21:22 51.38232 4.05252 27258 ft 407 kts 358°
2026-04-25 21:22 51.41046 4.05199 27261 ft 406 kts 358°
2026-04-25 21:23 51.43880 4.05141 27262 ft 406 kts 358°
2026-04-25 21:23 51.46686 4.05085 27260 ft 405 kts 358°
2026-04-25 21:23 51.49469 4.05596 27255 ft 408 kts 15°
2026-04-25 21:23 51.52163 4.06936 27257 ft 407 kts 14°
2026-04-25 21:24 51.54856 4.08210 27258 ft 407 kts 15°
2026-04-25 21:24 51.57556 4.09489 27260 ft 406 kts 15°
2026-04-25 21:24 51.60260 4.10775 27258 ft 406 kts 15°
2026-04-25 21:24 51.62946 4.12047 27258 ft 406 kts 15°
2026-04-25 21:25 51.65637 4.13331 27257 ft 405 kts 15°
2026-04-25 21:25 51.68334 4.14615 27259 ft 405 kts 15°
2026-04-25 21:25 51.70994 4.15882 27260 ft 405 kts 15°
2026-04-25 21:25 51.73685 4.17164 27258 ft 405 kts 14°
2026-04-25 21:26 51.76376 4.18450 27257 ft 405 kts 15°
2026-04-25 21:26 51.79055 4.19733 27259 ft 405 kts 14°
2026-04-25 21:26 51.81765 4.21029 27261 ft 405 kts 15°
2026-04-25 21:26 51.84449 4.22316 27258 ft 404 kts 15°
2026-04-25 21:27 51.87114 4.23597 27260 ft 404 kts 15°
2026-04-25 21:27 51.89801 4.24886 27260 ft 404 kts 15°
2026-04-25 21:27 51.92486 4.26180 27259 ft 404 kts 15°
2026-04-25 21:27 51.95138 4.27457 27258 ft 404 kts 15°
2026-04-25 21:28 51.97821 4.28753 27260 ft 404 kts 15°
2026-04-25 21:28 52.00525 4.30059 27257 ft 404 kts 15°
2026-04-25 21:28 52.03178 4.31343 27261 ft 404 kts 15°
2026-04-25 21:28 52.05856 4.32641 27260 ft 404 kts 15°
2026-04-25 21:29 52.08534 4.33939 27261 ft 404 kts 15°
2026-04-25 21:29 52.11175 4.35222 27261 ft 404 kts 14°
2026-04-25 21:29 52.13858 4.36527 27261 ft 403 kts 14°
2026-04-25 21:29 52.16536 4.37830 27264 ft 403 kts 14°
2026-04-25 21:30 52.19228 4.39139 27266 ft 403 kts 15°
2026-04-25 21:30 52.21900 4.40446 27263 ft 403 kts 14°
2026-04-25 21:30 52.24573 4.41753 27264 ft 403 kts 14°
2026-04-25 21:30 52.26332 4.42612 27267 ft 403 kts 14°
2026-04-25 21:31 52.29887 4.44349 27268 ft 403 kts 15°
2026-04-25 21:31 52.32562 4.45664 27269 ft 403 kts 15°
2026-04-25 21:31 52.35215 4.46966 27272 ft 403 kts 15°
2026-04-25 21:31 52.37902 4.48285 27273 ft 403 kts 15°
2026-04-25 21:32 52.40573 4.49603 27274 ft 402 kts 15°
2026-04-25 21:32 52.43170 4.50884 27274 ft 402 kts 15°
2026-04-25 21:32 52.45814 4.52189 27274 ft 402 kts 15°
2026-04-25 21:32 52.48480 4.53507 27275 ft 402 kts 15°
2026-04-25 21:33 52.51136 4.54820 27275 ft 402 kts 15°
2026-04-25 21:33 52.53801 4.56139 27275 ft 402 kts 15°
2026-04-25 21:33 52.56487 4.57472 27275 ft 402 kts 15°
2026-04-25 21:33 52.59116 4.58779 27277 ft 402 kts 15°
2026-04-25 21:34 52.61778 4.60101 27278 ft 402 kts 15°
2026-04-25 21:34 52.64437 4.61426 27278 ft 402 kts 15°
2026-04-25 21:34 52.67090 4.62748 27279 ft 401 kts 15°
2026-04-25 21:34 52.69744 4.64073 27273 ft 401 kts 15°
2026-04-25 21:35 52.72407 4.65404 27276 ft 401 kts 15°
2026-04-25 21:35 52.75082 4.66742 27276 ft 401 kts 15°
2026-04-25 21:35 52.77727 4.68070 27276 ft 401 kts 15°
2026-04-25 21:35 52.80381 4.69399 27276 ft 400 kts 15°
2026-04-25 21:36 52.83023 4.70728 27276 ft 400 kts 16°
2026-04-25 21:36 52.85668 4.72058 27273 ft 400 kts 15°
2026-04-25 21:36 52.88318 4.73393 27271 ft 400 kts 15°
2026-04-25 21:36 52.90920 4.74706 27269 ft 400 kts 15°
2026-04-25 21:37 52.93584 4.76050 27267 ft 399 kts 15°
2026-04-25 21:37 52.95337 4.76936 27267 ft 399 kts 15°
2026-04-25 21:37 52.98862 4.78720 27265 ft 399 kts 15°
2026-04-25 21:37 53.01489 4.80054 27264 ft 399 kts 15°
2026-04-25 21:38 53.04136 4.81395 27262 ft 399 kts 16°
2026-04-25 21:38 53.06773 4.82737 27262 ft 398 kts 15°
2026-04-25 21:38 53.09406 4.84077 27262 ft 398 kts 15°
2026-04-25 21:38 53.12065 4.85432 27265 ft 398 kts 15°
2026-04-25 21:39 53.14700 4.86775 27265 ft 398 kts 15°
2026-04-25 21:39 53.17332 4.88121 27268 ft 398 kts 15°
2026-04-25 21:39 53.19971 4.89468 27264 ft 398 kts 15°
2026-04-25 21:39 53.22576 4.90802 27266 ft 397 kts 15°
2026-04-25 21:40 53.25202 4.92151 27263 ft 397 kts 15°
2026-04-25 21:40 53.27854 4.93513 27263 ft 397 kts 15°
2026-04-25 21:40 53.30503 4.94877 27262 ft 397 kts 15°
2026-04-25 21:40 53.33133 4.96229 27262 ft 397 kts 15°
2026-04-25 21:41 53.35778 4.97590 27262 ft 397 kts 15°
2026-04-25 21:41 53.38392 4.98939 27264 ft 397 kts 15°
2026-04-25 21:41 53.41020 5.00298 27263 ft 397 kts 15°
2026-04-25 21:41 53.43652 5.01661 27264 ft 397 kts 15°
2026-04-25 21:42 53.46271 5.03019 27267 ft 396 kts 15°
2026-04-25 21:42 53.48911 5.04389 27266 ft 396 kts 15°
2026-04-25 21:42 53.51537 5.05751 27268 ft 396 kts 15°
2026-04-25 21:42 53.54126 5.07100 27269 ft 396 kts 15°
2026-04-25 21:43 53.56746 5.08464 27268 ft 396 kts 15°
2026-04-25 21:43 53.59367 5.09830 27268 ft 396 kts 15°
2026-04-25 21:43 53.61984 5.11196 27268 ft 396 kts 15°
2026-04-25 21:43 53.64599 5.12561 27268 ft 395 kts 15°
2026-04-25 21:44 53.67236 5.13944 27266 ft 395 kts 15°
2026-04-25 21:44 53.69846 5.15313 27264 ft 395 kts 15°
2026-04-25 21:44 53.75050 5.18044 27264 ft 395 kts 15°
2026-04-25 21:45 53.77656 5.19416 27261 ft 394 kts 15°
2026-04-25 21:45 53.79405 5.20338 27259 ft 394 kts 15°
2026-04-25 21:45 53.82867 5.22166 27254 ft 394 kts 15°
2026-04-25 21:45 53.85480 5.23546 27253 ft 393 kts 14°
2026-04-25 21:46 53.88074 5.24919 27250 ft 393 kts 14°
2026-04-25 21:46 53.90668 5.26293 27251 ft 392 kts 14°
2026-04-25 21:46 53.93250 5.27661 27251 ft 392 kts 14°
2026-04-25 21:46 53.95836 5.29036 27250 ft 392 kts 14°
2026-04-25 21:47 53.98428 5.30411 27252 ft 391 kts 14°
2026-04-25 21:47 54.01008 5.31786 27249 ft 391 kts 14°
2026-04-25 21:47 54.03588 5.33161 27250 ft 391 kts 14°
2026-04-25 21:47 54.06198 5.34555 27251 ft 390 kts 14°
2026-04-25 21:48 54.08774 5.35934 27251 ft 390 kts 14°
2026-04-25 21:48 54.11355 5.37313 27255 ft 390 kts 14°
2026-04-25 21:48 54.13965 5.38716 27256 ft 390 kts 14°
2026-04-25 21:48 54.16537 5.40093 27256 ft 390 kts 14°
2026-04-25 21:49 54.19134 5.41488 27254 ft 390 kts 14°
2026-04-25 21:49 54.21701 5.42867 27255 ft 390 kts 14°
2026-04-25 21:49 54.24301 5.44270 27253 ft 390 kts 14°
2026-04-25 21:49 54.26895 5.45670 27253 ft 389 kts 14°
2026-04-25 21:50 54.29467 5.47063 27251 ft 389 kts 14°
2026-04-25 21:50 54.32037 5.48449 27256 ft 389 kts 14°
2026-04-25 21:50 54.34646 5.49863 27259 ft 389 kts 14°
2026-04-25 21:50 54.36369 5.50795 27262 ft 389 kts 14°
2026-04-25 21:51 54.39771 5.52644 27257 ft 389 kts 14°
2026-04-25 21:51 54.42393 5.54072 27255 ft 389 kts 14°
2026-04-25 21:51 54.44957 5.55464 27259 ft 388 kts 13°
2026-04-25 21:51 54.47539 5.56873 27265 ft 388 kts 13°
2026-04-25 21:52 54.50113 5.58280 27258 ft 388 kts 13°
2026-04-25 21:52 54.52669 5.59676 27255 ft 388 kts 13°
2026-04-25 21:52 54.55269 5.61100 27257 ft 387 kts 13°
2026-04-25 21:52 54.57816 5.62497 27254 ft 387 kts 13°
2026-04-25 21:53 54.60387 5.63908 27255 ft 387 kts 13°
2026-04-25 21:53 54.62985 5.65333 27253 ft 387 kts 14°
2026-04-25 21:53 54.65529 5.66736 27248 ft 386 kts 14°
2026-04-25 21:53 54.68078 5.68138 27247 ft 386 kts 14°
2026-04-25 21:54 54.70678 5.69574 27247 ft 386 kts 14°
2026-04-25 21:54 54.73218 5.70977 27250 ft 385 kts 14°
2026-04-25 21:54 54.75756 5.72381 27247 ft 385 kts 14°
2026-04-25 21:54 54.78342 5.73813 27249 ft 384 kts 14°
2026-04-25 21:55 54.80876 5.75220 27247 ft 384 kts 14°
2026-04-25 21:55 54.83434 5.76640 27250 ft 384 kts 14°
2026-04-25 21:55 54.85980 5.78053 27246 ft 383 kts 14°
2026-04-25 21:55 54.88506 5.79462 27244 ft 383 kts 14°
2026-04-25 21:56 54.91098 5.80909 27243 ft 383 kts 13°
2026-04-25 21:56 54.92787 5.81851 27242 ft 382 kts 13°
2026-04-25 21:56 54.96152 5.83732 27241 ft 382 kts 13°
2026-04-25 21:56 54.98682 5.85148 27237 ft 382 kts 13°
2026-04-25 21:57 55.01161 5.86778 27233 ft 385 kts 20°
2026-04-25 21:57 55.03577 5.88755 27231 ft 384 kts 19°
2026-04-25 21:57 55.06040 5.90732 27233 ft 384 kts 20°
2026-04-25 21:57 55.08447 5.92670 27236 ft 383 kts 20°
2026-04-25 21:58 55.10882 5.94631 27240 ft 383 kts 20°
2026-04-25 21:58 55.13317 5.96596 27247 ft 383 kts 20°
2026-04-25 21:58 55.15719 5.98534 27253 ft 383 kts 20°
2026-04-25 21:58 55.18136 6.00491 27258 ft 383 kts 19°
2026-04-25 21:59 55.20530 6.02431 27255 ft 383 kts 19°
2026-04-25 21:59 55.22931 6.04377 27255 ft 383 kts 19°
2026-04-25 21:59 55.25373 6.06359 27253 ft 382 kts 19°
2026-04-25 22:00 55.30187 6.10274 27248 ft 382 kts 19°
2026-04-25 22:00 55.32625 6.12262 27247 ft 382 kts 19°
2026-04-25 22:00 55.35024 6.14225 27243 ft 382 kts 19°
2026-04-25 22:00 55.37424 6.16184 27242 ft 382 kts 19°
2026-04-25 22:01 55.39864 6.18182 27237 ft 382 kts 19°
2026-04-25 22:01 55.42257 6.20142 27235 ft 382 kts 19°
2026-04-25 22:01 55.44655 6.22113 27234 ft 381 kts 19°
2026-04-25 22:01 55.46274 6.23440 27235 ft 381 kts 19°
2026-04-25 22:02 55.49467 6.26073 27232 ft 381 kts 19°
2026-04-25 22:02 55.51905 6.28082 27229 ft 380 kts 19°
2026-04-25 22:02 55.54290 6.30045 27229 ft 380 kts 19°
2026-04-25 22:02 55.56670 6.32018 27222 ft 380 kts 19°
2026-04-25 22:03 55.59091 6.34020 27223 ft 380 kts 19°
2026-04-25 22:03 55.61465 6.35986 27227 ft 379 kts 19°
2026-04-25 22:03 55.63857 6.37971 27220 ft 379 kts 19°
2026-04-25 22:03 55.66247 6.39959 27214 ft 379 kts 19°
2026-04-25 22:04 55.68617 6.41926 27215 ft 378 kts 19°
2026-04-25 22:04 55.70983 6.43899 27216 ft 379 kts 19°
2026-04-25 22:04 55.73404 6.45919 27216 ft 381 kts 19°
2026-04-25 22:04 55.75804 6.47922 27215 ft 383 kts 19°
2026-04-25 22:05 55.78280 6.49996 27214 ft 385 kts 19°
2026-04-25 22:05 55.80713 6.52034 27214 ft 387 kts 19°
2026-04-25 22:05 55.83136 6.54066 27214 ft 388 kts 19°
2026-04-25 22:05 55.85639 6.56167 27217 ft 389 kts 19°
2026-04-25 22:06 55.88072 6.58215 27216 ft 390 kts 19°
2026-04-25 22:06 55.90523 6.60283 27213 ft 391 kts 19°
2026-04-25 22:06 55.93041 6.62403 27212 ft 392 kts 19°
2026-04-25 22:06 55.95488 6.64474 27209 ft 392 kts 19°
2026-04-25 22:07 55.97986 6.66585 27205 ft 393 kts 19°
2026-04-25 22:07 55.99620 6.67972 27200 ft 393 kts 19°
2026-04-25 22:07 56.02897 6.70751 27194 ft 393 kts 19°
2026-04-25 22:07 56.05445 6.72917 27191 ft 393 kts 19°
2026-04-25 22:08 56.07902 6.75004 27193 ft 393 kts 19°
2026-04-25 22:08 56.10356 6.77098 27189 ft 393 kts 19°
2026-04-25 22:08 56.12912 6.79281 27199 ft 394 kts 19°
2026-04-25 22:08 56.15389 6.81393 27198 ft 394 kts 19°
2026-04-25 22:09 56.17940 6.83577 27193 ft 394 kts 19°
2026-04-25 22:09 56.20404 6.85689 27192 ft 395 kts 19°
2026-04-25 22:09 56.22867 6.87804 27190 ft 395 kts 19°
2026-04-25 22:09 56.25400 6.89981 27188 ft 395 kts 19°
2026-04-25 22:10 56.27867 6.92108 27186 ft 395 kts 19°
2026-04-25 22:10 56.30345 6.94241 27184 ft 395 kts 19°
2026-04-25 22:10 56.32876 6.96427 27183 ft 394 kts 19°
2026-04-25 22:10 56.35344 6.98563 27180 ft 394 kts 19°
2026-04-25 22:11 56.37895 7.00769 27173 ft 394 kts 19°
2026-04-25 22:11 56.40352 7.02901 27173 ft 394 kts 19°
2026-04-25 22:11 56.42807 7.05030 27174 ft 394 kts 19°
2026-04-25 22:11 56.45338 7.07236 27172 ft 394 kts 19°
2026-04-25 22:12 56.47795 7.09376 27169 ft 393 kts 19°
2026-04-25 22:12 56.50321 7.11578 27167 ft 393 kts 19°
2026-04-25 22:12 56.52784 7.13727 27165 ft 393 kts 19°
2026-04-25 22:12 56.54406 7.15148 27163 ft 392 kts 19°
2026-04-25 22:13 56.57739 7.18066 27162 ft 392 kts 19°
2026-04-25 22:13 56.60183 7.20208 27167 ft 391 kts 19°
2026-04-25 22:13 56.62619 7.22353 27160 ft 391 kts 19°
2026-04-25 22:13 56.65119 7.24551 27154 ft 391 kts 19°
2026-04-25 22:14 56.67571 7.26712 27153 ft 391 kts 19°
2026-04-25 22:14 56.70068 7.28913 27152 ft 390 kts 19°
2026-04-25 22:14 56.72493 7.31058 27148 ft 390 kts 19°
2026-04-25 22:14 56.74917 7.33203 27147 ft 390 kts 18°
2026-04-25 22:15 56.77426 7.35427 27147 ft 389 kts 19°
2026-04-25 22:15 56.79847 7.37574 27144 ft 389 kts 19°
2026-04-25 22:15 56.82295 7.39755 27137 ft 389 kts 18°
2026-04-25 22:16 56.87183 7.44104 27140 ft 387 kts 18°
2026-04-25 22:16 56.89643 7.46306 27134 ft 387 kts 18°
2026-04-25 22:16 56.92039 7.48449 27133 ft 386 kts 18°
2026-04-25 22:16 56.94438 7.50593 27131 ft 386 kts 18°
2026-04-25 22:17 56.96910 7.52810 27128 ft 385 kts 18°
2026-04-25 22:17 56.99305 7.54961 27127 ft 385 kts 18°
2026-04-25 22:17 57.01727 7.57141 27126 ft 385 kts 18°
2026-04-25 22:17 57.04162 7.59330 27122 ft 384 kts 18°
2026-04-25 22:18 57.06533 7.61566 27116 ft 387 kts 22°
2026-04-25 22:18 57.08978 7.63573 27124 ft 374 kts
2026-04-25 22:18 57.11227 7.65038 27137 ft 378 kts 15°
2026-04-25 22:18 57.13796 7.66923 27131 ft 378 kts 14°
2026-04-25 22:19 57.16313 7.68821 27132 ft 378 kts 15°
2026-04-25 22:19 57.18752 7.70671 27130 ft 379 kts 15°
2026-04-25 22:19 57.21170 7.72517 27129 ft 379 kts 15°
2026-04-25 22:19 57.23669 7.74438 27128 ft 379 kts 15°
2026-04-25 22:20 57.26091 7.76295 27128 ft 379 kts 15°
2026-04-25 22:20 57.28526 7.78172 27130 ft 379 kts 15°
2026-04-25 22:20 57.30975 7.80054 27128 ft 379 kts 15°
2026-04-25 22:20 57.33389 7.81949 27112 ft 383 kts 20°
2026-04-25 22:21 57.35609 7.84976 27139 ft 392 kts 28°
2026-04-25 22:21 57.37781 7.87961 27126 ft 392 kts 28°
2026-04-25 22:21 57.39925 7.91024 27123 ft 391 kts 28°
2026-04-25 22:21 57.42106 7.94129 27122 ft 392 kts 28°
2026-04-25 22:22 57.44252 7.97190 27120 ft 391 kts 28°
2026-04-25 22:22 57.46413 8.00291 27120 ft 391 kts 28°
2026-04-25 22:22 57.48567 8.03384 27123 ft 391 kts 28°
2026-04-25 22:22 57.50727 8.06483 27123 ft 391 kts 28°
2026-04-25 22:23 57.52887 8.09591 27121 ft 391 kts 28°
2026-04-25 22:23 57.55023 8.12670 27120 ft 390 kts 28°
2026-04-25 22:23 57.57154 8.15746 27121 ft 390 kts 27°
2026-04-25 22:23 57.59332 8.18891 27121 ft 389 kts 28°
2026-04-25 22:24 57.61456 8.21970 27121 ft 389 kts 28°
2026-04-25 22:24 57.63601 8.25083 27120 ft 389 kts 28°
2026-04-25 22:24 57.65752 8.28200 27119 ft 388 kts 28°
2026-04-25 22:24 57.67871 8.31283 27119 ft 387 kts 27°
2026-04-25 22:25 57.70029 8.34434 27122 ft 387 kts 28°
2026-04-25 22:25 57.72141 8.37512 27120 ft 387 kts 28°
2026-04-25 22:25 57.74245 8.40591 27119 ft 386 kts 28°
2026-04-25 22:25 57.76391 8.43727 27119 ft 386 kts 28°
2026-04-25 22:26 57.78493 8.46804 27118 ft 385 kts 28°
2026-04-25 22:26 57.80648 8.49972 27117 ft 385 kts 27°
2026-04-25 22:26 57.82741 8.53045 27117 ft 384 kts 27°
2026-04-25 22:26 57.84828 8.56118 27117 ft 384 kts 27°
2026-04-25 22:27 57.86958 8.59264 27115 ft 383 kts 27°
2026-04-25 22:27 57.89042 8.62343 27116 ft 383 kts 27°
2026-04-25 22:27 57.91122 8.65418 27117 ft 382 kts 28°
2026-04-25 22:27 57.93213 8.68525 27111 ft 382 kts 28°
2026-04-25 22:28 57.95303 8.71620 27114 ft 381 kts 28°
2026-04-25 22:28 57.97414 8.74753 27110 ft 381 kts 28°
2026-04-25 22:28 57.99483 8.77828 27111 ft 380 kts 28°
2026-04-25 22:28 58.01542 8.80906 27073 ft 380 kts 28°
2026-04-25 22:29 58.03680 8.84078 26416 ft 391 kts 28°
2026-04-25 22:29 58.05818 8.87276 25827 ft 398 kts 28°
2026-04-25 22:29 58.08027 8.90587 25246 ft 399 kts 28°
2026-04-25 22:30 58.12304 8.97024 24214 ft 390 kts 28°
2026-04-25 22:30 58.14442 9.00239 23711 ft 384 kts 28°
2026-04-25 22:30 58.16497 9.03339 23234 ft 378 kts 28°
2026-04-25 22:30 58.17848 9.05378 22917 ft 375 kts 28°
2026-04-25 22:31 58.20591 9.09517 22275 ft 369 kts 28°
2026-04-25 22:31 58.22570 9.12510 21800 ft 364 kts 28°
2026-04-25 22:31 58.24575 9.15561 21317 ft 359 kts 28°
2026-04-25 22:31 58.26506 9.18491 20866 ft 356 kts 28°
2026-04-25 22:32 58.28412 9.21380 20403 ft 351 kts 28°
2026-04-25 22:32 58.30354 9.24348 19939 ft 347 kts 28°
2026-04-25 22:32 58.32215 9.27172 19482 ft 343 kts 27°
2026-04-25 22:32 58.34082 9.30030 19034 ft 338 kts 28°
2026-04-25 22:33 58.35906 9.32816 18597 ft 339 kts 28°
2026-04-25 22:33 58.37751 9.35630 18150 ft 341 kts 28°
2026-04-25 22:33 58.39614 9.38495 17695 ft 341 kts 28°
2026-04-25 22:33 58.41454 9.41315 17243 ft 342 kts 29°
2026-04-25 22:34 58.43304 9.44150 16783 ft 341 kts 29°
2026-04-25 22:34 58.45178 9.47057 16329 ft 341 kts 29°
2026-04-25 22:34 58.46994 9.49849 16141 ft 333 kts 29°
2026-04-25 22:34 58.48785 9.52628 16125 ft 322 kts 29°
2026-04-25 22:35 58.50500 9.55288 16122 ft 313 kts 28°
2026-04-25 22:35 58.52174 9.57866 15538 ft 312 kts 29°
2026-04-25 22:35 58.53894 9.60509 14211 ft 319 kts 30°
2026-04-25 22:35 58.55611 9.63166 13683 ft 322 kts 31°
2026-04-25 22:36 58.57351 9.65873 13260 ft 323 kts 32°
2026-04-25 22:36 58.59090 9.68581 12841 ft 324 kts 32°
2026-04-25 22:36 58.60829 9.71293 12407 ft 325 kts 33°
2026-04-25 22:36 58.62619 9.74095 11974 ft 325 kts 33°
2026-04-25 22:37 58.64331 9.76768 11553 ft 312 kts 33°
2026-04-25 22:37 58.65961 9.79328 11165 ft 296 kts 34°
2026-04-25 22:37 58.67510 9.81757 10800 ft 282 kts 34°
2026-04-25 22:37 58.68985 9.84067 10488 ft 268 kts 34°
2026-04-25 22:38 58.70395 9.86288 10232 ft 259 kts 34°
2026-04-25 22:38 58.71792 9.88471 9893 ft 258 kts 34°
2026-04-25 22:38 58.73173 9.90651 9527 ft 258 kts 34°
2026-04-25 22:38 58.74563 9.92835 9167 ft 251 kts 34°
2026-04-25 22:39 58.75890 9.94935 8828 ft 245 kts 34°
2026-04-25 22:39 58.77206 9.97009 8508 ft 238 kts 34°
2026-04-25 22:39 58.78462 9.98999 8198 ft 232 kts 34°
2026-04-25 22:39 58.79678 10.00919 7901 ft 223 kts 34°
2026-04-25 22:40 58.80875 10.02816 7614 ft 215 kts 34°
2026-04-25 22:40 58.82013 10.04619 7342 ft 208 kts 34°
2026-04-25 22:40 58.83124 10.06377 7070 ft 202 kts 34°
2026-04-25 22:40 58.84198 10.08083 6813 ft 200 kts 34°
2026-04-25 22:41 58.85261 10.09771 6557 ft 198 kts 34°
2026-04-25 22:41 58.86334 10.11476 6302 ft 197 kts 33°
2026-04-25 22:41 58.87383 10.13137 6041 ft 195 kts 34°
2026-04-25 22:41 58.88428 10.14799 5787 ft 194 kts 34°
2026-04-25 22:42 58.89466 10.16461 5532 ft 192 kts 34°
2026-04-25 22:42 58.90492 10.18094 5276 ft 191 kts 34°
2026-04-25 22:42 58.91523 10.19736 5008 ft 190 kts 34°
2026-04-25 22:42 58.92536 10.21354 4739 ft 190 kts 35°
2026-04-25 22:43 58.93546 10.22971 4477 ft 189 kts 35°
2026-04-25 22:43 58.94568 10.24601 4208 ft 188 kts 35°
2026-04-25 22:43 58.95595 10.26117 3933 ft 185 kts 23°
2026-04-25 22:43 58.96852 10.26370 3718 ft 179 kts 356°
2026-04-25 22:44 58.98064 10.26318 3515 ft 173 kts
2026-04-25 22:44 58.99247 10.26298 3292 ft 169 kts 360°
2026-04-25 22:44 59.00402 10.26263 3146 ft 161 kts
2026-04-25 22:44 59.01491 10.26239 3025 ft 153 kts
2026-04-25 22:45 59.02529 10.26216 3002 ft 142 kts
2026-04-25 22:45 59.03487 10.26196 3049 ft 134 kts
2026-04-25 22:45 59.04420 10.26173 2947 ft 136 kts
2026-04-25 22:45 59.05403 10.26156 2770 ft 139 kts
2026-04-25 22:46 59.06360 10.26133 2576 ft 137 kts 360°
2026-04-25 22:46 59.07304 10.26115 2385 ft 136 kts 360°
2026-04-25 22:46 59.08261 10.26090 2198 ft 135 kts 359°
2026-04-25 22:46 59.09196 10.26071 2001 ft 137 kts 360°
2026-04-25 22:47 59.10168 10.26044 1819 ft 141 kts
2026-04-25 22:47 59.11155 10.26027 1625 ft 140 kts
2026-04-25 22:47 59.12065 10.26004 1454 ft 124 kts
2026-04-25 22:47 59.12893 10.25988 1271 ft 114 kts
2026-04-25 22:48 59.13653 10.25972 1096 ft 107 kts
2026-04-25 22:48 59.14386 10.25958 947 ft 106 kts
2026-04-25 22:48 59.15131 10.25941 815 ft 109 kts 359°
2026-04-25 22:48 59.15897 10.25921 664 ft 113 kts 359°
2026-04-25 22:49 59.16703 10.25923 539 ft 112 kts
2026-04-25 22:49 59.17474 10.25895 342 ft 111 kts 358°
2026-04-25 22:49 59.18193 10.25864 285 ft 94 kts 359°
2026-04-25 22:49 59.18757 10.25858 300 ft 66 kts 357°
2026-04-25 22:50 59.19047 10.25902 306 ft 23 kts 59°
2026-04-25 22:50 59.19059 10.26122 301 ft 0 kts 89°
2026-04-25 22:52 59.19059 10.26141 301 ft 4 kts 94°
2026-04-25 22:53 59.18997 10.26228 298 ft 14 kts 178°
2026-04-25 22:53 59.18879 10.26230 293 ft 20 kts 179°
2026-04-25 22:53 59.18729 10.26232 289 ft 23 kts 179°
2026-04-25 22:53 59.18560 10.26234 284 ft 26 kts 179°
2026-04-25 22:54 59.18375 10.26240 279 ft 28 kts 179°
2026-04-25 22:54 59.18278 10.26179 278 ft 13 kts 259°
2026-04-25 22:54 59.18276 10.26075 280 ft 0 kts 269°
2026-04-25 22:56 59.18276 10.26060 280 ft 3 kts 270°
2026-04-25 22:56 59.18276 10.25972 283 ft 11 kts 270°
2026-04-25 22:56 59.18236 10.25818 288 ft 14 kts 225°
2026-04-25 22:56 59.18168 10.25679 292 ft 14 kts 227°
2026-04-25 22:57 59.18106 10.25558 299 ft 11 kts 214°
2026-04-25 22:57 59.18065 10.25437 304 ft 11 kts 268°
2026-04-25 22:57 59.18066 10.25290 312 ft 10 kts 269°
2026-04-25 22:57 59.18026 10.25185 313 ft 13 kts 181°
2026-04-25 22:58 59.17996 10.25185 313 ft 0 kts 180°